Temperature
14 14 14 13 13 14 14 14 14 14 14 14 14 14 14 14 14 14 14 14 14 15 15 15 15 15 15 15 15 15 15 15 15 15 15 15 15 15 15 15 15 15 15
14 13 13 13 13 13 14 14 14 14 14 13 13 14 14 14 14 14 14 14 14 14 15 15 15 15 15 15 15 15 15 15 15 15 15 15 15 15 15 15 15 15 15
14 13 13 13 13 13 13 13 13 13 13 13 13 13 13 14 14 14 14 14 14 14 14 14 15 15 15 15 15 15 15 15 15 15 14 14 14 15 15 15 15 15 15
13 13 13 13 13 13 13 13 13 13 13 13 13 13 13 13 13 14 14 14 14 14 14 14 14 14 14 14 14 14 14 14 14 14 14 14 14 14 14 14 14 14 14
13 13 13 13 13 13 13 13 13 13 13 13 13 13 13 13 13 13 13 13 13 13 14 14 14 14 14 14 14 14 14 14 14 14 13 13 14 14 14 14 14 14 14
12 12 13 12 12 12 13 12 12 12 13 12 12 12 13 13 13 13 13 13 13 13 13 13 13 14 14 14 14 14 14 14 14 13 13 13 13 13 14 14 14 14 14
12 12 12 12 12 12 12 12 12 12 12 12 12 12 12 12 12 12 13 13 13 13 13 13 13 13 13 13 14 14 14 14 13 13 13 13 13 13 13 13 13 13 14
12 12 12 12 12 12 12 12 12 12 12 12 12 12 12 12 12 12 12 12 12 12 12 13 13 13 13 13 13 13 13 13 13 13 12 12 13 13 13 13 13 13 13
11 11 11 11 11 11 11 11 11 11 12 12 12 12 12 12 12 12 12 12 12 12 12 12 12 13 13 13 13 13 13 13 12 12 12 12 12 13 13 12 12 13 13
11 11 11 11 11 11 11 11 11 11 11 11 11 11 11 11 11 11 11 11 11 11 11 12 12 12 12 12 12 12 12 12 12 12 12 12 12 12 12 12 12 12 12
10 10 11 11 11 10 11 11 11 11 11 11 11 11 11 11 11 11 11 11 11 11 11 11 11 11 12 12 12 12 12 11 11 11 11 11 12 12 12 12 12 12 12
10 10 10 10 10 10 10 10 10 10 10 10 11 11 11 11 11 11 11 11 11 11 11 11 11 11 11 11 11 11 11 11 11 11 11 11 11 11 11 11 11 11 11
9 9 9 9 10 10 10 10 10 10 10 10 10 10 10 10 10 10 10 10 10 10 10 10 10 10 10 10 10 10 10 10 10 10 10 10 10 10 11 11 11 11 11
9 9 9 9 9 9 9 9 9 9 9 10 10 10 10 10 10 10 10 10 10 10 10 10 10 10 10 10 10 10 10 10 10 10 10 10 10 10 10 10 10 10 10
8 8 8 8 8 8 8 9 9 9 9 9 9 9 9 9 9 9 9 9 9 9 9 9 9 9 9 9 9 9 9 9 9 9 9 9 9 9 10 10 10 10 10
7 8 8 8 8 8 8 8 8 8 8 8 8 9 9 9 9 9 9 9 8 8 9 8 8 8 8 8 9 9 9 9 9 9 9 9 9 9 9 9 9 9 9
7 7 7 7 7 7 7 8 8 8 8 8 8 8 8 8 8 8 8 8 8 8 8 8 8 8 8 8 8 8 8 8 8 8 8 8 8 9 9 9 9 9 9
6 6 6 6 7 7 7 7 7 7 7 7 7 7 7 7 8 8 8 7 7 7 7 7 7 7 7 7 7 7 8 8 8 8 8 8 8 8 8 8 8 8 8
5 5 6 6 6 6 6 6 6 6 7 7 6 6 7 7 7 7 7 7 7 7 7 7 6 7 7 7 7 7 7 7 7 7 7 7 7 8 8 8 8 8 8
5 5 5 5 5 5 5 6 6 6 6 6 6 6 6 6 6 6 6 6 6 6 6 6 6 6 6 6 6 6 6 6 6 6 7 7 7 7 7 7 7 7 7
4 4 4 4 5 5 5 5 5 5 5 5 5 5 5 6 6 6 6 5 5 5 6 5 5 5 5 5 5 5 5 6 6 6 6 6 6 6 7 7 7 7 7
4 4 4 4 4 4 4 4 4 4 5 5 5 5 5 5 5 5 5 5 5 5 5 5 5 5 5 4 4 4 4 4 5 5 5 5 6 6 6 6 6 6 6
3 4 4 3 4 4 3 3 3 3 4 4 4 4 4 4 4 4 4 4 4 4 4 4 4 4 4 4 4 4 4 4 4 4 4 5 5 5 5 5 5 5 5
3 3 3 3 3 3 3 3 3 3 3 3 3 4 3 4 4 4 4 4 4 4 3 3 3 3 3 3 3 3 4 4 3 3 3 4 4 4 4 4 4 5 5
2 2 2 2 2 2 2 2 2 2 2 2 3 3 3 3 3 3 3 3 3 3 3 3 3 3 3 3 3 3 3 3 3 3 2 3 3 3 3 4 4 4 4
1 2 2 2 1 2 2 2 2 2 2 2 2 2 2 2 2 2 2 2 2 2 2 2 2 2 2 2 2 2 2 2 2 2 2 2 2 2 3 3 3 3 3
Wind_Speed
0 3 3 1 4 6 7 7 8 9 8 9 9 9 9 10 10 10 11 11 11 12 12 13 13 13 13 13 14 14 15 15 15 15 15 15 16 16 17 16 15 16 18
1 2 1 2 4 6 7 8 8 8 8 9 9 9 9 9 10 10 11 11 11 12 12 12 13 12 13 13 14 14 14 14 14 14 13 15 15 16 16 16 15 15 17
1 0 2 4 5 6 7 8 8 8 9 9 9 9 9 9 9 10 11 11 11 11 12 13 13 13 14 14 14 14 13 13 13 12 10 12 14 15 15 16 17 17 17
1 1 2 5 6 6 7 8 8 9 8 8 8 9 9 9 9 10 11 11 11 11 12 12 13 14 14 14 14 13 13 12 11 8 9 10 12 14 14 15 16 16 16
2 3 3 5 6 7 7 7 8 8 8 8 8 8 9 9 9 10 10 11 11 11 13 13 13 14 14 14 14 13 12 11 9 8 10 10 11 13 14 14 15 15 16
3 3 4 5 5 6 7 7 7 7 8 8 8 8 9 9 10 10 11 11 10 12 13 13 14 14 14 13 13 12 11 10 8 9 10 10 11 12 13 13 14 15 15
3 4 5 6 6 6 7 7 6 6 7 8 8 8 8 9 9 10 11 11 11 11 12 13 13 13 13 13 13 12 11 9 8 9 10 10 11 12 13 13 14 14 14
3 4 5 6 6 6 6 7 7 6 7 7 7 8 8 9 9 10 11 11 11 11 12 13 13 13 13 13 13 12 11 9 9 9 9 10 11 12 13 13 14 14 14
4 4 5 5 5 5 6 6 6 7 7 7 8 7 8 8 9 10 10 10 10 11 12 13 13 13 13 13 13 13 12 10 9 8 8 9 11 12 13 13 13 14 14
4 5 5 5 4 4 4 6 7 7 7 7 8 7 8 9 9 9 9 9 10 10 11 12 12 13 13 13 13 12 10 9 9 8 8 10 11 12 12 12 13 13 13
3 4 5 5 4 3 4 5 6 7 7 7 7 7 6 6 7 7 9 10 9 10 10 11 11 12 12 11 11 9 8 8 8 7 7 10 11 11 12 12 12 12 12
2 3 4 4 4 3 4 4 4 4 4 5 5 5 4 5 6 6 9 10 10 10 10 10 10 9 8 7 8 7 6 7 7 7 8 10 10 10 11 11 11 11 11
1 1 2 3 3 4 3 3 3 3 3 3 4 4 3 4 5 5 5 6 7 8 7 8 7 6 6 5 5 6 6 6 6 7 8 9 9 9 9 9 9 10 10
1 1 1 2 3 3 3 3 3 3 3 3 3 4 3 3 3 3 4 4 4 4 5 4 4 5 6 5 6 6 5 5 5 6 8 9 9 8 8 8 8 9 9
1 0 1 2 2 2 3 3 3 3 2 2 3 3 3 3 2 3 3 3 4 4 4 4 4 5 5 5 5 5 5 5 5 6 6 9 9 8 8 7 7 8 8
1 0 1 1 2 2 3 3 2 2 2 2 2 3 3 3 2 2 3 3 3 3 3 4 4 4 4 4 4 5 4 4 5 5 5 7 8 7 7 7 7 7 7
1 1 1 1 2 2 3 3 2 2 2 2 2 2 3 3 2 2 2 2 2 3 3 4 4 4 3 3 3 4 4 4 3 4 4 4 5 6 6 6 6 7 6
1 1 1 1 2 2 2 2 2 2 2 2 2 2 2 2 2 2 2 2 3 3 3 3 3 3 3 2 2 2 3 3 3 3 3 3 3 3 5 5 5 5 5
1 1 1 1 2 2 2 2 2 2 2 2 2 2 2 2 2 2 2 2 3 3 2 2 2 2 2 2 2 2 2 2 2 2 2 3 3 3 3 4 3 3 3
2 1 2 2 2 2 2 2 2 2 2 2 2 2 1 1 2 2 2 3 3 3 2 2 2 2 2 2 2 2 2 1 1 1 1 2 2 2 2 2 2 2 3
2 1 1 2 2 2 2 2 2 1 1 1 2 2 1 1 1 2 1 2 2 3 3 3 3 3 2 2 1 1 1 1 0 1 1 1 2 2 2 2 2 1 2
3 2 1 2 2 2 2 2 1 1 1 1 1 1 1 1 1 1 2 1 2 2 3 4 4 2 2 2 2 1 1 1 1 1 0 0 1 1 1 1 2 1 1
3 3 2 2 2 2 2 2 2 2 1 1 0 0 1 0 1 1 2 2 2 2 4 4 5 4 4 3 3 2 2 3 1 2 2 2 2 2 2 1 2 2 2
4 3 3 2 2 2 2 3 4 3 2 2 2 1 1 0 0 1 2 2 2 2 3 4 4 4 4 4 3 2 2 2 2 2 2 3 3 3 3 3 3 3 4
4 3 2 2 1 1 2 4 5 4 3 2 2 2 2 1 1 1 1 2 2 2 3 4 4 4 4 4 4 2 2 2 3 3 4 4 4 4 4 4 4 4 5
3 3 2 2 2 1 1 3 4 4 3 3 3 3 2 1 1 2 2 2 3 3 3 4 4 5 5 5 4 4 4 3 3 3 4 4 4 4 4 5 5 5 5
Wind_Direction
230 314 321 118 108 103 101 102 101 94 93 92 88 86 82 79 77 75 73 71 70 69 69 71 76 82 84 85 87 85 83 82 82 82 83 85 86 89 89 88 91 91 91
286 290 351 88 103 101 98 100 99 98 95 93 90 87 85 83 80 76 73 71 72 71 70 73 79 82 84 85 86 85 84 84 83 84 86 88 86 88 88 84 84 91 91
22 360 99 71 88 96 96 97 101 100 97 95 93 89 87 85 84 80 76 73 73 75 76 78 79 82 81 82 83 83 83 83 82 84 92 95 91 90 90 88 87 91 92
53 91 95 77 82 91 98 97 99 100 96 95 95 92 89 86 86 83 80 77 75 76 82 83 83 83 83 81 80 79 80 79 78 85 91 93 95 93 93 92 91 93 93
82 87 85 75 84 89 96 99 99 100 97 95 94 94 89 86 86 85 83 80 77 78 82 84 85 84 83 81 80 77 76 76 78 88 89 90 92 95 96 96 95 94 95
84 80 78 67 76 91 91 97 102 101 101 100 95 92 89 87 85 85 82 81 82 82 85 85 85 85 84 82 78 75 71 70 84 90 91 90 91 96 98 98 98 96 95
81 71 77 66 70 86 92 89 94 103 103 104 100 95 91 89 88 86 82 80 82 85 88 88 86 86 85 83 78 73 67 62 83 92 92 91 90 93 96 98 100 100 97
80 72 76 65 63 72 85 89 89 93 104 104 102 97 95 93 91 88 86 82 80 84 87 87 85 84 84 82 78 72 66 66 81 87 90 92 91 95 97 95 97 97 97
75 70 67 66 63 64 74 84 86 81 87 97 96 93 93 92 92 88 87 85 83 83 87 87 85 84 83 83 80 73 66 63 77 82 86 91 92 98 99 98 97 96 95
66 58 52 55 59 65 77 79 82 80 80 88 93 94 95 97 97 93 89 86 85 84 85 88 88 87 83 81 78 75 73 73 77 79 84 87 90 97 97 96 96 99 99
56 45 40 40 48 57 74 75 79 84 79 82 85 85 97 106 105 102 89 85 85 86 86 87 89 88 85 81 76 73 76 81 79 76 81 82 90 95 97 96 95 97 99
73 40 33 36 38 54 67 78 72 81 91 86 84 87 102 107 101 97 93 88 87 87 88 85 84 85 83 83 77 75 81 83 82 79 78 80 87 92 96 98 99 100 100
141 59 29 31 43 52 67 73 66 60 73 82 80 75 83 100 102 95 96 92 90 89 86 87 80 75 75 77 74 72 76 78 81 81 78 79 86 91 96 101 102 102 103
128 66 25 31 48 56 65 76 72 68 59 62 72 77 79 88 91 96 90 86 86 85 83 77 76 77 75 78 82 79 75 78 80 79 74 77 84 90 96 102 105 106 104
149 61 30 35 53 66 71 71 72 64 69 60 78 78 80 89 96 91 85 86 85 86 90 85 80 82 77 73 75 76 74 76 81 84 80 78 81 84 91 99 105 106 107
212 253 47 56 59 81 82 80 74 74 70 63 67 75 82 85 101 106 92 85 85 90 95 99 93 88 81 75 73 71 72 74 78 85 88 81 78 83 87 93 98 97 101
215 229 147 97 73 81 85 84 83 83 88 76 55 78 82 85 97 116 109 93 89 97 104 106 101 93 88 78 71 67 68 71 78 81 83 86 88 83 84 88 96 101 104
198 208 171 97 91 83 85 84 81 87 89 82 72 72 79 87 97 116 115 106 104 109 108 113 114 105 91 75 57 55 67 71 71 80 86 87 87 89 87 84 92 100 108
196 191 170 124 114 98 99 95 93 95 84 78 72 55 66 81 105 110 115 120 126 116 111 118 125 116 109 80 53 30 42 58 63 74 84 89 90 90 95 90 95 97 110
185 161 166 145 127 113 115 106 99 94 77 72 62 48 47 83 100 106 112 136 140 131 131 135 136 121 124 109 73 37 19 35 63 74 83 97 100 101 109 109 117 104 111
176 155 142 161 147 132 138 146 144 124 88 69 55 41 36 70 97 110 121 148 156 159 154 152 138 135 133 134 115 66 23 23 43 71 83 111 111 119 125 127 132 137 135
194 183 179 189 177 166 170 175 174 152 125 75 59 37 17 78 110 117 136 153 173 168 164 163 158 164 176 182 179 185 214 224 221 225 185 163 180 153 137 153 156 161 181
208 205 204 211 205 189 180 163 135 123 116 152 140 4 338 355 103 155 162 164 179 179 183 184 185 183 191 202 207 215 213 221 247 217 220 214 214 222 211 199 198 197 206
217 208 204 213 211 203 181 184 180 189 203 221 216 210 240 249 188 179 177 181 189 198 195 197 201 208 205 203 212 246 258 231 220 219 219 221 225 229 226 219 217 213 216
215 201 197 204 204 205 202 197 196 202 209 205 203 201 199 207 215 197 200 200 202 209 209 209 209 212 216 219 219 226 234 237 238 231 237 236 233 230 230 228 228 224 221
206 191 188 191 193 199 215 214 204 198 198 196 203 202 206 209 224 222 223 221 219 219 216 216 213 216 222 226 231 228 222 217 221 229 238 238 243 243 234 228 227 227 222
Height
1533 1533 1534 1535 1536 1537 1537 1537 1538 1538 1538 1538 1538 1538 1537 1537 1537 1536 1535 1535 1534 1533 1532 1531 1531 1531 1532 1532 1533 1533 1534 1534 1534 1535 1536 1536 1537 1537 1538 1538 1539 1539 1539
1532 1533 1534 1535 1536 1537 1537 1537 1538 1538 1538 1538 1538 1538 1538 1538 1537 1537 1536 1536 1535 1535 1534 1533 1534 1534 1534 1534 1534 1535 1535 1536 1536 1536 1537 1538 1539 1539 1540 1540 1540 1541 1541
1531 1532 1534 1535 1536 1537 1537 1538 1538 1539 1539 1539 1539 1539 1539 1538 1538 1538 1537 1537 1536 1536 1535 1535 1535 1535 1535 1535 1536 1536 1536 1536 1537 1537 1538 1539 1540 1541 1541 1542 1542 1543 1543
1531 1532 1534 1535 1536 1536 1537 1538 1538 1539 1539 1539 1539 1539 1539 1539 1539 1539 1538 1538 1537 1537 1536 1536 1536 1536 1536 1537 1537 1537 1537 1537 1537 1538 1539 1540 1541 1542 1543 1543 1544 1545 1545
1531 1532 1533 1535 1536 1536 1537 1538 1538 1539 1539 1539 1539 1539 1539 1539 1539 1539 1539 1539 1538 1538 1537 1537 1537 1537 1537 1538 1538 1538 1538 1537 1537 1538 1539 1541 1542 1543 1544 1545 1546 1546 1547
1531 1532 1533 1534 1535 1536 1537 1538 1538 1539 1539 1539 1539 1539 1540 1540 1540 1540 1540 1539 1539 1539 1539 1539 1538 1538 1538 1539 1539 1539 1538 1538 1537 1537 1539 1541 1543 1544 1545 1546 1547 1547 1548
1531 1532 1533 1534 1535 1536 1536 1537 1537 1538 1538 1538 1539 1539 1539 1540 1540 1540 1540 1540 1540 1540 1540 1540 1539 1540 1540 1540 1540 1540 1539 1538 1538 1538 1540 1542 1543 1545 1546 1547 1548 1548 1549
1530 1531 1533 1534 1534 1535 1536 1536 1537 1537 1537 1538 1538 1539 1539 1539 1540 1540 1540 1540 1540 1540 1540 1540 1540 1540 1541 1540 1540 1541 1541 1540 1540 1541 1542 1543 1544 1546 1547 1547 1548 1549 1550
1530 1531 1532 1533 1533 1534 1535 1535 1536 1536 1536 1537 1537 1538 1539 1539 1539 1540 1540 1540 1540 1541 1541 1540 1541 1541 1541 1541 1541 1541 1542 1541 1542 1542 1544 1545 1546 1547 1548 1548 1549 1550 1550
1529 1530 1531 1532 1532 1533 1533 1534 1535 1535 1536 1536 1537 1538 1538 1538 1539 1539 1540 1540 1541 1541 1541 1541 1541 1542 1542 1542 1542 1542 1543 1543 1543 1544 1545 1546 1547 1548 1548 1549 1550 1550 1551
1528 1529 1529 1530 1531 1532 1532 1533 1533 1534 1535 1535 1536 1537 1537 1538 1538 1539 1540 1540 1540 1541 1541 1541 1541 1542 1542 1543 1543 1543 1544 1544 1544 1545 1546 1547 1547 1548 1549 1550 1550 1551 1552
1526 1527 1528 1528 1529 1530 1531 1531 1532 1533 1533 1534 1535 1535 1536 1536 1537 1538 1539 1540 1540 1540 1540 1541 1541 1542 1542 1543 1543 1544 1544 1545 1545 1546 1547 1547 1548 1549 1549 1550 1551 1551 1552
1524 1525 1526 1527 1527 1528 1529 1530 1530 1531 1532 1532 1533 1534 1534 1535 1536 1537 1538 1539 1539 1539 1540 1540 1541 1541 1542 1543 1543 1544 1544 1545 1545 1546 1547 1548 1548 1549 1549 1550 1551 1551 1552
1522 1523 1524 1525 1526 1527 1527 1528 1529 1529 1529 1531 1531 1532 1533 1533 1534 1535 1536 1537 1538 1538 1539 1539 1540 1541 1541 1542 1543 1543 1544 1545 1545 1546 1546 1547 1548 1549 1549 1550 1551 1551 1552
1520 1521 1522 1523 1524 1525 1525 1526 1527 1527 1528 1529 1530 1530 1531 1532 1533 1534 1534 1535 1536 1537 1537 1538 1539 1540 1540 1541 1542 1543 1543 1544 1545 1545 1546 1547 1547 1548 1549 1550 1550 1551 1551
1517 1518 1519 1520 1521 1522 1523 1524 1525 1526 1527 1527 1528 1529 1529 1530 1531 1531 1532 1533 1534 1535 1536 1537 1537 1538 1539 1540 1541 1542 1542 1543 1544 1544 1545 1546 1547 1547 1548 1549 1549 1549 1550
1515 1516 1517 1518 1519 1520 1521 1522 1523 1524 1525 1525 1526 1527 1527 1528 1529 1529 1530 1531 1532 1533 1534 1535 1536 1537 1538 1538 1539 1540 1541 1541 1542 1543 1544 1545 1545 1546 1547 1547 1547 1548 1549
1513 1513 1514 1515 1516 1517 1518 1520 1521 1522 1523 1523 1524 1524 1525 1526 1527 1527 1528 1528 1529 1530 1531 1532 1534 1535 1535 1536 1537 1538 1539 1540 1541 1542 1542 1543 1543 1544 1545 1545 1546 1547 1547
1510 1511 1512 1513 1513 1515 1516 1517 1518 1519 1520 1521 1522 1522 1523 1523 1524 1525 1525 1526 1527 1528 1529 1530 1531 1532 1533 1534 1535 1536 1537 1537 1538 1539 1540 1541 1541 1542 1543 1543 1544 1545 1545
1507 1508 1509 1510 1511 1512 1513 1514 1515 1517 1517 1518 1519 1520 1520 1521 1521 1522 1523 1523 1524 1525 1526 1527 1528 1530 1531 1532 1533 1534 1534 1535 1536 1537 1537 1538 1539 1540 1540 1541 1542 1543 1544
1504 1505 1506 1507 1508 1509 1509 1510 1511 1513 1514 1515 1516 1516 1517 1518 1518 1519 1520 1520 1521 1522 1523 1524 1525 1527 1528 1529 1530 1531 1532 1533 1533 1534 1534 1535 1536 1537 1538 1539 1539 1540 1541
1501 1502 1503 1503 1504 1505 1506 1508 1508 1509 1510 1512 1512 1513 1514 1515 1515 1516 1516 1517 1518 1519 1520 1521 1522 1523 1525 1526 1527 1528 1530 1531 1530 1530 1531 1532 1533 1534 1535 1536 1537 1538 1538
1498 1499 1499 1500 1501 1502 1503 1504 1505 1506 1507 1508 1509 1510 1511 1511 1512 1512 1513 1514 1515 1516 1516 1517 1519 1520 1521 1523 1525 1526 1527 1527 1527 1528 1527 1528 1530 1531 1531 1533 1534 1535 1535
1495 1496 1496 1497 1498 1499 1500 1501 1501 1502 1503 1504 1505 1506 1507 1507 1508 1509 1509 1510 1511 1512 1513 1514 1515 1516 1518 1519 1520 1521 1523 1523 1524 1524 1525 1525 1526 1527 1528 1529 1530 1531 1532
1491 1492 1493 1494 1495 1495 1496 1497 1498 1499 1499 1500 1501 1502 1502 1503 1504 1505 1506 1506 1507 1508 1509 1510 1511 1512 1514 1515 1516 1517 1518 1519 1519 1520 1520 1521 1522 1523 1523 1524 1525 1526 1527
1488 1489 1490 1490 1491 1492 1492 1493 1494 1495 1495 1496 1497 1497 1498 1499 1500 1501 1502 1502 1503 1504 1505 1506 1507 1508 1509 1510 1511 1512 1513 1514 1515 1516 1516 1516 1517 1518 1519 1520 1521 1522 1523